User: anonymous   Login
Location: NJAA Observatory
(40.6819°N, 74.8979°W)
Time: 16:07:12
(UTC-04:00)
Language:

S-56A Canister/Altair - Orbit

View from above orbital plane
View from above orbital plane
View from above satellite
View from above satellite

Ground track
Ground track

The orbit data is extracted from the following two-line orbital elements,

1 00082U 61004B   16147.61152084 -.00000025  00000-0  24277-4 0  9991
2 00082  38.8515 287.4163 1166479 128.7343 242.1715 12.25759901625821
Epoch (UTC): 26 May 2016 14:40:35
Eccentricity: 0.1166479
inclination: 38.8515°
perigee height: 641 km
apogee height: 2494 km
right ascension of ascending node: 287.4163°
argument of perigee: 128.7343°
revolutions per day: 12.25759901
mean anomaly at epoch: 242.1715°
orbit number at epoch: 62582

The dashed part of the orbit path shows where the satellite is in the earth's shadow,  

DLR